User: anonymous   Login
Location: Leeds
(37.2390°N, 113.3580°W)
Time: 17:30:49
(UTC-07:00)
Language:

SL-08 RB Rocket - Orbit

View from above orbital plane
View from above orbital plane
View from above satellite
View from above satellite

Ground track
Ground track

The orbit data is extracted from the following two-line orbital elements,

1 26387U 00033D   14354.30959530  .00001562  00000-0  28234-3 0  6918
2 26387 098.0852 059.8322 0026159 346.8664 060.2775 14.67596516774385
Epoch (UTC): 20 December 2014 07:25:49
Eccentricity: 0.0026159
inclination: 98.0852°
perigee height: 650 km
apogee height: 687 km
right ascension of ascending node: 59.8322°
argument of perigee: 346.8664°
revolutions per day: 14.67596516
mean anomaly at epoch: 60.2775°
orbit number at epoch: 77438

The dashed part of the orbit path shows where the satellite is in the earth's shadow,  

DLR